Home > Time Zones > World Clock > Weather > Russia > Perm > Past weeks

Flag for Russia Weather past 2 weeks in Perm, Russia

Now
10 °F

Light snow. Mostly cloudy.


Feels Like: 1 °F
Forecast: 13 / 19 °F
Wind: 6 mph from Southwest

Location: Perm'/Bolshoe Savino

Current Time: Oct 23, 2014 at 8:59:10 PM

Latest Report: Oct 23, 2014 at 8:30 PM


Visibility: N/A

Pressure: 29.74 "Hg

Humidity: 92%

Dew point: 9 °F

Location of PermLocation

Historic Weather in Perm — Graph

°F

Perm temperature yesterday

Maximum temperature yesterday: 25 °F (at 4:30 PM)
Minimum temperature yesterday: 12 °F (at 12:00 AM)
Average temperature yesterday: 20 °F

Past Weeks' High & Low Weather Summary

 TemperatureHumidityPressure
High41 °F (Oct 8, 7:00 PM)100% (Oct 8, 8:00 PM)30.36 "Hg (Oct 8, 8:00 PM)
Low-6 °F (Oct 21, 7:30 AM)44% (Oct 17, 2:30 PM)29.36 "Hg (Oct 22, 4:30 PM)
Average28 °F88%29.87 "Hg
* Reported Oct 8 7:00 PM — Oct 23 7:30 PM, Perm, Weather by CustomWeather, © 2014

Note: Actual official high and low records may vary slightly from our data, if they occured in-between our weather recording intervals... More about our weather records

Advertising

Perm weather history for previous 24 hours

 ConditionsComfort  
Time TempWeatherWind HumidityBarometerVisibility
7:30 PM
Oct 23
12 °FLight snow. Mostly cloudy.6 mph85%29.71 "HgN/A
7:00 PM12 °FLight snow. Mostly cloudy.6 mph92%29.71 "Hg5 mi
6:30 PM12 °FLight snow. Mostly cloudy.8 mph92%29.71 "Hg2 mi
6:00 PM14 °FSnow. Mostly cloudy.8 mph85%29.71 "Hg1 mi
5:30 PM14 °FLight snow. Mostly cloudy.8 mph85%29.71 "Hg1 mi
5:00 PM14 °FSnow. Mostly cloudy.10 mph85%29.71 "Hg1 mi
4:30 PM14 °FLight snow. Mostly cloudy.8 mph79%29.68 "Hg4 mi
4:00 PM14 °FLight snow. Mostly cloudy.10 mph79%29.68 "HgN/A
3:30 PM14 °FLight snow. Mostly cloudy.13 mph79%29.65 "HgN/A
3:00 PM14 °FLight snow. Mostly cloudy.10 mph85%29.65 "Hg3 mi
2:30 PM14 °FLight snow. Mostly cloudy.10 mph85%29.65 "Hg2 mi
2:00 PM14 °FLight snow. Mostly cloudy.13 mph79%29.65 "Hg3 mi
1:30 PM14 °FLight snow. Mostly cloudy.13 mph85%29.62 "Hg2 mi
1:00 PM14 °FLight snow. Mostly cloudy.17 mph85%29.62 "Hg2 mi
12:30 PM16 °FLight snow. Mostly cloudy.13 mph86%29.59 "Hg2 mi
12:00 PM16 °FSnow. Mostly cloudy.8 mph93%29.59 "Hg1 mi
11:30 AM16 °FLight snow. Mostly cloudy.10 mph93%29.59 "Hg2 mi
11:00 AM16 °FLight snow. Mostly cloudy.10 mph93%29.56 "Hg2 mi
10:30 AM18 °FLight snow. Mostly cloudy.13 mph93%29.56 "Hg3 mi
10:00 AM18 °FLight snow. Mostly cloudy.10 mph93%29.56 "Hg2 mi
9:30 AM19 °FLight snow. Mostly cloudy.8 mph93%29.53 "Hg3 mi
9:00 AM19 °FLight snow. Mostly cloudy.6 mph93%29.53 "Hg2 mi
8:30 AM19 °FLight snow. Mostly cloudy.6 mph93%29.53 "Hg3 mi
8:00 AM19 °FLight snow. Mostly cloudy.6 mph100%29.53 "HgN/A
7:30 AM21 °FLight snow. Overcast.6 mph93%29.53 "Hg4 mi
7:00 AM19 °FSnow. Ice fog.3 mph100%29.53 "Hg1 mi
6:30 AM19 °FSnow. Ice fog.3 mph100%29.50 "Hg1 mi
6:00 AM19 °FSnow. Ice fog.3 mph100%29.50 "Hg1 mi
5:30 AM21 °FSnow. Ice fog.3 mph93%29.50 "Hg1 mi
5:00 AM21 °FSnow. Ice fog.3 mph93%29.50 "Hg1 mi
4:30 AM21 °FSnow. Ice fog.8 mph93%29.50 "Hg1 mi
4:00 AM21 °FSnow. Ice fog.8 mph93%29.47 "Hg1 mi
3:30 AM21 °FSnow. Ice fog.10 mph93%29.47 "Hg1 mi
3:00 AM21 °FMixture of precip. Low clouds.10 mph93%29.47 "Hg2 mi
2:30 AM21 °FMixture of precip. Low clouds.10 mph93%29.47 "Hg2 mi
2:00 AM21 °FLight snow. Overcast.10 mph93%29.45 "HgN/A
1:30 AM21 °FMixture of precip. Overcast.10 mph93%29.45 "HgN/A
1:00 AM21 °FMixture of precip. Overcast.13 mph93%29.45 "Hg5 mi
12:30 AM21 °FMixture of precip. Overcast.15 mph93%29.45 "Hg6 mi
12:00 AM21 °FLight snow. Overcast.13 mph93%29.45 "HgN/A
11:30 PM
Oct 22
23 °FOvercast.13 mph86%29.42 "HgN/A
11:00 PM21 °FLight snow. Overcast.13 mph93%29.42 "HgN/A
10:30 PM23 °FLight snow. Overcast.17 mph86%29.42 "HgN/A
10:00 PM23 °FLight snow. Overcast.20 mph86%29.42 "HgN/A
9:30 PM23 °FMixture of precip. Overcast.17 mph93%29.42 "Hg3 mi
9:00 PM23 °FLight snow. Overcast.17 mph93%29.42 "Hg3 mi
8:30 PM23 °FLight snow. Overcast.17 mph93%29.42 "Hg2 mi
8:00 PM23 °FLight snow. Overcast.15 mph93%29.39 "Hg2 mi
Weather by CustomWeather, © 2014

See weather overviewHow to use our weather pages